Szczecin, Poland

10:26 AM CET on January 22, 2018 (GMT +0100)
Goleniow

Weather History for EPSC - May, 2013

Change the Weather History Date:

Thursday, May 16, 2013

  Actual Average Record
Temperature  
Mean Temperature 67 °F -  
Max Temperature 79 °F 65 °F 84 °F (2000)
Min Temperature 55 °F 46 °F 33 °F (2007)
Cooling Degree Days 2    
Growing Degree Days 17 (Base 50)    
Moisture  
Dew Point 50 °F    
Average Humidity 51    
Maximum Humidity 73    
Minimum Humidity 26    
Precipitation  
Precipitation 0.00 in - - ()
Sea Level Pressure  
Sea Level Pressure 29.61 in    
Wind  
Wind Speed 12 mph ()    
Max Wind Speed 25 mph    
Max Gust Speed 31 mph    
Visibility 16.3 miles    
Events      
Averages and records for this station are not official NWS values.
T = Trace of Precipitation, MM = Missing Value Source: Averaged Metar Reports

Daily Weather History Graph

Daily Weather History Graph

Search for Another Location

Airport or City:

Trip Planner

Search our weather history database for the weather conditions in past years. The results will help you decide how hot, cold, wet, or windy it might be!

Date:

Astronomy

May. 16, 2013 Rise Set
Actual Time 4:59 AM CEST 8:56 PM CEST
Civil Twilight 4:15 AM CEST 9:42 PM CEST
Nautical Twilight 3:11 AM CEST 10:46 PM CEST
Astronomical Twilight 1:30 AM CEST 12:25 AM CEST
Moon 10:30 AM CEST (5/16) 12:55 AM CEST (5/16)
Length of Visible Light 17h 26m
Length of Day
15h 57m
Waxing Crescent, 33% of the Moon is Illuminated
May 16
Waxing Crescent
May 18
First Quarter
May 25
Full
May 31
Last Quarter
Jun 8
New

Hourly Weather History & Observations

Time (CEST) Temp. Dew Point Humidity Pressure Visibility Wind Dir Wind Speed Gust Speed Precip Events Conditions
12:00 AM 62.6 °F 46.4 °F 55% 29.68 in - ESE 11.5 mph - N/A   Clear
12:30 AM 62.6 °F 48.2 °F 59% 29.68 in - ESE 11.5 mph - N/A   Clear
1:00 AM 62.6 °F 48.2 °F 59% 29.68 in - ESE 13.8 mph - N/A   Clear
1:30 AM 60.8 °F 48.2 °F 63% 29.65 in - ESE 12.7 mph - N/A   Clear
2:00 AM 58 °F 49 °F 65% 29.67 in 19 mi ESE 13.4 mph - -  
2:00 AM 60.8 °F 48.2 °F 63% 29.65 in - ESE 11.5 mph - N/A   Clear
2:30 AM 60.8 °F 48.2 °F 63% 29.65 in - ESE 10.4 mph - N/A   Clear
3:00 AM 60.8 °F 48.2 °F 63% 29.65 in - ESE 10.4 mph - N/A   Clear
3:30 AM 59.0 °F 48.2 °F 67% 29.65 in - ESE 11.5 mph - N/A   Clear
4:00 AM 59.0 °F 48.2 °F 67% 29.65 in - ESE 10.4 mph - N/A   Clear
4:30 AM 57.2 °F 48.2 °F 72% 29.65 in - ESE 9.2 mph - N/A   Clear
5:00 AM 56 °F 50 °F 73% 29.64 in 12 mi ESE 15.7 mph - -   Clear
5:00 AM 57.2 °F 48.2 °F 72% 29.65 in - ESE 9.2 mph - N/A   Clear
5:30 AM 57.2 °F 48.2 °F 72% 29.65 in - ESE 9.2 mph - N/A   Clear
6:00 AM 57.2 °F 48.2 °F 72% 29.65 in - ESE 10.4 mph - N/A   Clear
6:30 AM 59.0 °F 48.2 °F 67% 29.65 in - ESE 10.4 mph - N/A   Clear
7:00 AM 59.0 °F 50.0 °F 72% 29.65 in - ESE 9.2 mph - N/A   Clear
7:30 AM 60.8 °F 50.0 °F 68% 29.65 in - ESE 9.2 mph - N/A   Clear
8:00 AM 62 °F 53 °F 64% 29.65 in 12 mi ESE 13.4 mph - -   Clear
8:00 AM 62.6 °F 51.8 °F 68% 29.65 in - ESE 8.1 mph - N/A   Clear
8:30 AM 64.4 °F 51.8 °F 64% 29.65 in - ESE 10.4 mph - N/A   Clear
9:00 AM 66.2 °F 51.8 °F 60% 29.65 in - SE 10.4 mph - N/A   Clear
9:30 AM 68.0 °F 53.6 °F 60% 29.65 in - SE 9.2 mph - N/A   Clear
10:00 AM 69.8 °F 53.6 °F 56% 29.65 in - SE 9.2 mph - N/A   Clear
10:30 AM 69.8 °F 51.8 °F 53% 29.62 in - ESE 11.5 mph - N/A   Clear
11:00 AM 71 °F 54 °F 45% 29.62 in 16 mi ESE 20.1 mph - -  
11:00 AM 71.6 °F 53.6 °F 53% 29.62 in - ESE 11.5 mph - N/A   Clear
11:30 AM 73.4 °F 53.6 °F 50% 29.62 in - SE 12.7 mph - N/A   Clear
12:00 PM 73.4 °F 51.8 °F 47% 29.62 in - SE 12.7 mph - N/A   Clear
12:30 PM 75.2 °F 51.8 °F 44% 29.59 in - SE 13.8 mph - N/A   Clear
1:00 PM 77.0 °F 53.6 °F 44% 29.59 in - ESE 13.8 mph - N/A   Clear
1:30 PM 77.0 °F 50.0 °F 39% 29.59 in - ESE 19.6 mph - N/A   Clear
2:00 PM 77 °F 52 °F 30% 29.59 in 19 mi ESE 24.6 mph - -   Clear
2:00 PM 77.0 °F 48.2 °F 36% 29.59 in - ESE 17.3 mph 28.8 mph N/A   Clear
2:30 PM 78.8 °F 46.4 °F 32% 29.56 in - SE 17.3 mph 28.8 mph N/A   Clear
3:00 PM 78.8 °F 48.2 °F 34% 29.56 in - SE 16.1 mph 27.6 mph N/A   Clear
3:30 PM 78.8 °F 46.4 °F 32% 29.56 in - SE 19.6 mph 31.1 mph N/A   Clear
4:00 PM 78.8 °F 46.4 °F 32% 29.56 in - ESE 15.0 mph 27.6 mph N/A   Clear
4:30 PM 80.6 °F 42.8 °F 26% 29.56 in - SE 17.3 mph 28.8 mph N/A   Clear
5:00 PM 78 °F 50 °F 27% 29.55 in 17 mi ESE 22.4 mph - -   Scattered Clouds
5:00 PM 78.8 °F 44.6 °F 30% 29.56 in - SE 17.3 mph 28.8 mph N/A   Clear
5:30 PM 78.8 °F 46.4 °F 32% 29.53 in - SE 18.4 mph 29.9 mph N/A   Clear
6:00 PM 78.8 °F 46.4 °F 32% 29.53 in - SE 17.3 mph 28.8 mph N/A   Clear
6:30 PM 77.0 °F 50.0 °F 39% 29.53 in - SE 13.8 mph 25.3 mph N/A   Clear
7:00 PM 75.2 °F 50.0 °F 41% 29.53 in - SE 13.8 mph 25.3 mph N/A   Clear
7:30 PM 75.2 °F 50.0 °F 41% 29.56 in - SE 17.3 mph - N/A   Clear
8:00 PM 73 °F 51 °F 36% 29.55 in 25 mi ESE 17.9 mph - -   Clear
8:00 PM 75.2 °F 50.0 °F 41% 29.56 in - SE 11.5 mph - N/A   Clear
8:30 PM 73.4 °F 50.0 °F 44% 29.56 in - ESE 10.4 mph - N/A   Clear
9:00 PM 71.6 °F 50.0 °F 46% 29.56 in - ESE 8.1 mph - N/A   Clear
9:30 PM 71.6 °F 50.0 °F 46% 29.56 in - ESE 8.1 mph - N/A   Clear
10:00 PM 69.8 °F 50.0 °F 49% 29.59 in - ESE 8.1 mph - N/A   Clear
10:30 PM 68.0 °F 51.8 °F 56% 29.59 in - East 6.9 mph - N/A   Clear
11:00 PM 67 °F 53 °F 50% 29.58 in 19 mi ESE 11.2 mph - -   Partly Cloudy
11:00 PM 68.0 °F 51.8 °F 56% 29.59 in - ESE 9.2 mph - N/A   Clear
11:30 PM 68.0 °F 50.0 °F 52% 29.59 in - ESE 11.5 mph - N/A   Clear